Weather History for Olathe, KS

Change the Weather History Date:

Thursday, June 7, 2012

  Actual Average Record
Temperature  
Mean Temperature 72 °F 71 °F  
Max Temperature 82 °F 81 °F 94 °F (1963)
Min Temperature 61 °F 62 °F 50 °F (1955)
Degree Days  
Heating Degree Days 0 0  
Month to date heating degree days 8 6  
Since 1 June heating degree days 8 6  
Since 1 July heating degree days 3815 4932  
Cooling Degree Days 7 7  
Month to date cooling degree days 39 44  
Year to date cooling degree days 299 148  
Since 1 June cooling degree days 39 44  
Growing Degree Days 22 (Base 50)    
Moisture  
Dew Point 51 °F    
Average Humidity 51    
Maximum Humidity 72    
Minimum Humidity 30    
Precipitation  
Precipitation 0.00 in 0.22 in 1.13 in (1993)
Month to date precipitation 0.01 1.52  
Year to date precipitation 11.40 16.26  
Sea Level Pressure  
Sea Level Pressure 30.05 in    
Wind  
Wind Speed 6 mph (ESE)    
Max Wind Speed 12 mph    
Max Gust Speed 17 mph    
Visibility 10 miles    
Events      
T = Trace of Precipitation, MM = Missing Value Source: NWS Daily Summary

Daily Weather History Graph

Daily Weather History Graph

Search for Another Location

Airport:

Trip Planner

Search our weather history database for the weather conditions in past years. The results will help you decide how hot, cold, wet, or windy it might be!

Date:

Astronomy

Jun. 07, 2012 Rise Set
Actual Time 5:53 AM CDT 8:42 PM CDT
Civil Twilight 5:22 AM CDT 9:14 PM CDT
Nautical Twilight 4:42 AM CDT 9:54 PM CDT
Astronomical Twilight 3:56 AM CDT 10:39 PM CDT
Moon 11:35 PM CDT (6/7) 9:24 AM CDT (6/7)
Length of Visible Light 15h 52m
Length of Day
14h 48m
Waning Gibbous, 86% of the Moon is Illuminated
Jun 7
Waning Gibbous
Jun 11
Last Quarter
Jun 19
New
Jun 26
First Quarter
Jul 3
Full

Hourly Weather History & Observations

Time (CDT) Temp. Dew Point Humidity Pressure Visibility Wind Dir Wind Speed Gust Speed Precip Events Conditions
12:53 AM 68.0 °F 54.0 °F 61% 30.02 in 10.0 mi East 5.8 mph - N/A   Clear
2:53 AM 64.9 °F 52.0 °F 63% 30.04 in 10.0 mi SE 6.9 mph - N/A   Clear
3:53 AM 63.0 °F 51.1 °F 65% 30.04 in 10.0 mi ESE 5.8 mph - N/A   Clear
4:53 AM 62.1 °F 51.1 °F 67% 30.03 in 10.0 mi ESE 5.8 mph - N/A   Clear
5:53 AM 61.0 °F 50.0 °F 67% 30.05 in 10.0 mi ESE 4.6 mph - N/A   Clear
6:53 AM 61.0 °F 51.1 °F 70% 30.07 in 10.0 mi SE 5.8 mph - N/A   Clear
7:53 AM 64.9 °F 51.1 °F 61% 30.07 in 10.0 mi SSE 8.1 mph - N/A   Clear
8:53 AM 68.0 °F 52.0 °F 56% 30.09 in 10.0 mi SE 6.9 mph - N/A   Clear
9:53 AM 71.1 °F 54.0 °F 55% 30.11 in 10.0 mi SE 5.8 mph - N/A   Clear
10:53 AM 73.9 °F 54.0 °F 50% 30.10 in 10.0 mi South 6.9 mph - N/A   Clear
11:53 AM 75.9 °F 52.0 °F 43% 30.09 in 10.0 mi ESE 8.1 mph - N/A   Clear
12:53 PM 79.0 °F 52.0 °F 39% 30.08 in 10.0 mi East 4.6 mph - N/A   Clear
1:53 PM 79.0 °F 52.0 °F 39% 30.07 in 10.0 mi Variable 4.6 mph - N/A   Clear
2:53 PM 82.0 °F 52.0 °F 35% 30.06 in 10.0 mi Variable 3.5 mph - N/A   Clear
3:53 PM 81.0 °F 50.0 °F 34% 30.05 in 10.0 mi East 6.9 mph - N/A   Clear
4:53 PM 81.0 °F 46.9 °F 30% 30.04 in 10.0 mi East 5.8 mph - N/A   Clear
5:53 PM 80.1 °F 48.9 °F 34% 30.03 in 10.0 mi ENE 4.6 mph - N/A   Clear
6:53 PM 79.0 °F 52.0 °F 39% 30.02 in 10.0 mi East 5.8 mph - N/A   Clear
7:53 PM 75.9 °F 52.0 °F 43% 30.02 in 10.0 mi East 6.9 mph - N/A   Clear
8:53 PM 73.0 °F 51.1 °F 46% 30.02 in 10.0 mi East 5.8 mph - N/A   Clear
9:53 PM 71.1 °F 51.1 °F 49% 30.03 in 10.0 mi East 5.8 mph - N/A   Clear
10:53 PM 69.1 °F 51.1 °F 53% 30.03 in 10.0 mi East 5.8 mph - N/A   Clear
11:53 PM 66.9 °F 51.1 °F 57% 30.04 in 10.0 mi ESE 4.6 mph - N/A   Clear